Baraboo, WI

2:50 PM CST on January 18, 2017 (GMT -0600)
Baraboo Wisconsin Dells

Weather History for KDLL - February, 2014

Change the Weather History Date:

Friday, February 7, 2014

  Actual Average Record
Temperature  
Mean Temperature 5 °F -  
Max Temperature 14 °F 28 °F 51 °F (1987)
Min Temperature -4 °F 1 °F -25 °F (1967)
Degree Days  
Heating Degree Days 60    
Moisture  
Dew Point -7 °F    
Average Humidity 62    
Maximum Humidity 78    
Minimum Humidity 38    
Precipitation  
Precipitation 0.00 in - - ()
Sea Level Pressure  
Sea Level Pressure 30.21 in    
Wind  
Wind Speed 9 mph (WSW)    
Max Wind Speed 18 mph    
Max Gust Speed 24 mph    
Visibility 10 miles    
Events      
Averages and records for this station are not official NWS values.
T = Trace of Precipitation, MM = Missing Value Source: NWS Daily Summary

Daily Weather History Graph

Daily Weather History Graph

Search for Another Location

Airport or City:

Trip Planner

Search our weather history database for the weather conditions in past years. The results will help you decide how hot, cold, wet, or windy it might be!

Date:

Astronomy

Feb. 07, 2014 Rise Set
Actual Time 7:08 AM CST 5:18 PM CST
Civil Twilight 6:38 AM CST 5:48 PM CST
Nautical Twilight 6:04 AM CST 6:22 PM CST
Astronomical Twilight 5:31 AM CST 6:56 PM CST
Moon 11:28 AM CST (2/7) 1:25 AM CST (2/7)
Length of Visible Light 11h 10m
Length of Day
10h 10m
First Quarter, 59% of the Moon is Illuminated
Feb 7
First Quarter
Feb 14
Full
Feb 22
Last Quarter
Mar 1
New
Mar 8
First Quarter

Hourly Weather History & Observations

Time (CST) Temp. Windchill Dew Point Humidity Pressure Visibility Wind Dir Wind Speed Gust Speed Precip Events Conditions
12:15 AM -2.6 °F -19.4 °F -8.5 °F 76% 30.24 in 10.0 mi WSW 10.4 mph - N/A   Clear
12:35 AM -2.2 °F -18.9 °F -8.3 °F 75% 30.24 in 10.0 mi WSW 10.4 mph - N/A   Clear
12:55 AM -1.8 °F -17.5 °F -8.1 °F 75% 30.23 in 10.0 mi West 9.2 mph - N/A   Clear
1:15 AM -1.8 °F -17.5 °F -8.1 °F 75% 30.23 in 10.0 mi WSW 9.2 mph - N/A   Clear
1:35 AM -2.0 °F -16.6 °F -8.3 °F 75% 30.23 in 10.0 mi West 8.1 mph - N/A   Clear
1:55 AM -2.0 °F -16.6 °F -8.5 °F 74% 30.23 in 10.0 mi West 8.1 mph - N/A   Clear
2:15 AM -2.2 °F -18.0 °F -8.5 °F 75% 30.23 in 10.0 mi WSW 9.2 mph - N/A   Scattered Clouds
2:35 AM -2.2 °F -16.8 °F -8.5 °F 75% 30.23 in 10.0 mi WSW 8.1 mph - N/A   Clear
2:55 AM -2.7 °F -17.5 °F -8.7 °F 76% 30.22 in 10.0 mi WSW 8.1 mph - N/A   Clear
3:15 AM -2.6 °F -18.4 °F -8.7 °F 75% 30.21 in 10.0 mi West 9.2 mph - N/A   Clear
3:35 AM -2.2 °F -16.8 °F -8.5 °F 75% 30.22 in 10.0 mi West 8.1 mph - N/A   Clear
3:55 AM -2.4 °F -17.1 °F -8.5 °F 75% 30.21 in 10.0 mi West 8.1 mph - N/A   Clear
4:15 AM -2.9 °F -18.8 °F -8.9 °F 76% 30.21 in 10.0 mi West 9.2 mph - N/A   Clear
4:35 AM -2.7 °F -16.2 °F -8.9 °F 75% 30.21 in 10.0 mi WSW 6.9 mph - N/A   Clear
4:55 AM -3.6 °F -14.1 °F -9.4 °F 76% 30.21 in 10.0 mi WSW 4.6 mph - N/A   Clear
5:15 AM -3.1 °F -17.9 °F -8.7 °F 77% 30.21 in 10.0 mi WSW 8.1 mph - N/A   Clear
5:35 AM -3.6 °F -17.3 °F -9.6 °F 76% 30.20 in 10.0 mi WSW 6.9 mph - N/A   Clear
5:55 AM -4.0 °F -17.8 °F -9.6 °F 77% 30.20 in 10.0 mi WSW 6.9 mph - N/A   Clear
6:15 AM -4.0 °F -19.0 °F -10.1 °F 75% 30.20 in 10.0 mi WSW 8.1 mph - N/A   Clear
6:35 AM -4.4 °F -15.0 °F -10.3 °F 76% 30.20 in 10.0 mi WSW 4.6 mph - N/A   Clear
6:55 AM -4.9 °F -13.4 °F -10.3 °F 78% 30.21 in 10.0 mi WSW 3.5 mph - N/A   Clear
7:15 AM -4.9 °F -18.8 °F -10.3 °F 78% 30.21 in 10.0 mi WSW 6.9 mph - N/A   Clear
7:35 AM -4.5 °F -19.7 °F -10.3 °F 76% 30.22 in 10.0 mi SW 8.1 mph - N/A   Clear
7:55 AM -3.3 °F -18.2 °F -9.6 °F 74% 30.22 in 10.0 mi WSW 8.1 mph - N/A   Clear
8:15 AM -2.7 °F -18.6 °F -9.6 °F 73% 30.23 in 10.0 mi WSW 9.2 mph - N/A   Clear
8:35 AM -2.0 °F -18.7 °F -9.4 °F 71% 30.23 in 10.0 mi SW 10.4 mph - N/A   Clear
8:55 AM -0.9 °F -19.1 °F -8.9 °F 69% 30.23 in 10.0 mi WSW 12.7 mph - N/A   Clear
9:15 AM 0.1 °F -17.7 °F -8.5 °F 67% 30.23 in 10.0 mi WSW 12.7 mph 17.3 mph N/A   Clear
9:35 AM 1.4 °F -15.3 °F -8.5 °F 63% 30.23 in 10.0 mi WSW 11.5 mph 18.4 mph N/A   Clear
9:55 AM 2.5 °F -14.8 °F -8.1 °F 61% 30.23 in 10.0 mi WSW 12.7 mph - N/A   Clear
10:15 AM 3.2 °F -14.6 °F -8.0 °F 60% 30.23 in 10.0 mi WSW 13.8 mph 17.3 mph N/A   Clear
10:35 AM 4.1 °F -12.7 °F -7.8 °F 58% 30.23 in 10.0 mi WSW 12.7 mph 19.6 mph N/A   Clear
10:55 AM 5.7 °F -9.1 °F -7.4 °F 55% 30.23 in 10.0 mi WSW 10.4 mph - N/A   Clear
11:15 AM 6.8 °F -8.6 °F -7.2 °F 53% 30.23 in 10.0 mi WSW 11.5 mph - N/A   Clear
11:35 AM 8.2 °F -8.2 °F -6.7 °F 51% 30.22 in 10.0 mi WSW 13.8 mph 19.6 mph N/A   Clear
11:55 AM 8.2 °F -7.5 °F -6.3 °F 52% 30.21 in 10.0 mi WSW 12.7 mph 19.6 mph N/A   Clear
12:15 PM 9.0 °F -7.9 °F -6.3 °F 50% 30.21 in 10.0 mi WSW 15.0 mph - N/A   Clear
12:35 PM 9.9 °F -5.5 °F -6.2 °F 48% 30.21 in 10.0 mi SW 12.7 mph 17.3 mph N/A   Clear
12:55 PM 10.2 °F -5.7 °F -5.6 °F 49% 30.20 in 10.0 mi SW 13.8 mph - N/A   Clear
1:15 PM 11.1 °F -3.2 °F -5.8 °F 47% 30.20 in 10.0 mi WSW 11.5 mph 20.7 mph N/A   Clear
1:35 PM 12.2 °F -3.1 °F -6.3 °F 43% 30.19 in 10.0 mi WSW 13.8 mph 21.9 mph N/A   Clear
1:55 PM 12.9 °F -0.2 °F -6.3 °F 42% 30.19 in 10.0 mi WSW 10.4 mph 24.2 mph N/A   Clear
2:15 PM 12.9 °F -2.2 °F -5.4 °F 44% 30.18 in 10.0 mi WSW 13.8 mph 21.9 mph N/A   Clear
2:35 PM 13.6 °F -1.9 °F -5.6 °F 42% 30.18 in 10.0 mi WSW 15.0 mph - N/A   Clear
2:55 PM 14.0 °F -0.8 °F -7.1 °F 39% 30.18 in 10.0 mi WSW 13.8 mph 19.6 mph N/A   Clear
3:15 PM 14.2 °F -2.7 °F -6.7 °F 39% 30.18 in 10.0 mi West 18.4 mph 23.0 mph N/A   Clear
3:35 PM 14.0 °F -1.4 °F -7.6 °F 38% 30.18 in 10.0 mi West 15.0 mph 20.7 mph N/A   Clear
3:55 PM 14.0 °F -0.8 °F -7.8 °F 38% 30.18 in 10.0 mi WSW 13.8 mph - N/A   Clear
4:15 PM 13.1 °F -1.4 °F -7.2 °F 40% 30.18 in 10.0 mi WSW 12.7 mph 18.4 mph N/A   Clear
4:35 PM 12.7 °F -2.5 °F -7.2 °F 41% 30.18 in 10.0 mi WSW 13.8 mph 20.7 mph N/A   Clear
4:55 PM 12.2 °F 1.7 °F -7.6 °F 41% 30.19 in 10.0 mi WSW 6.9 mph - N/A   Clear
5:15 PM 11.5 °F -1.9 °F -7.2 °F 43% 30.19 in 10.0 mi WSW 10.4 mph - N/A   Clear
5:35 PM 10.2 °F -0.6 °F -6.7 °F 47% 30.19 in 10.0 mi WSW 6.9 mph - N/A   Clear
5:55 PM 10.2 °F -5.0 °F -6.2 °F 48% 30.20 in 10.0 mi West 12.7 mph 17.3 mph N/A   Clear
6:15 PM 9.5 °F -2.6 °F -6.0 °F 50% 30.20 in 10.0 mi West 8.1 mph - N/A   Clear
6:35 PM 8.8 °F -1.1 °F -5.8 °F 52% 30.21 in 10.0 mi WSW 5.8 mph - N/A   Clear
6:55 PM 8.2 °F -3.0 °F -5.8 °F 53% 30.21 in 10.0 mi WSW 6.9 mph - N/A   Clear
7:15 PM 7.3 °F -1.3 °F -6.2 °F 54% 30.21 in 10.0 mi WSW 4.6 mph - N/A   Clear
7:35 PM 5.7 °F -1.3 °F -6.7 °F 57% 30.21 in 10.0 mi SW 3.5 mph - N/A   Clear
7:55 PM 5.9 °F -4.5 °F -6.2 °F 58% 30.21 in 10.0 mi WSW 5.8 mph - N/A   Clear
8:15 PM 5.4 °F -5.2 °F -6.0 °F 60% 30.21 in 10.0 mi SW 5.8 mph - N/A   Clear
8:35 PM 5.4 °F -6.5 °F -5.6 °F 61% 30.21 in 10.0 mi SW 6.9 mph - N/A   Clear
8:55 PM 5.4 °F -1.7 °F -5.3 °F 62% 30.21 in 10.0 mi WSW 3.5 mph - N/A   Clear
9:15 PM 5.5 °F -3.4 °F -4.7 °F 63% 30.22 in 10.0 mi WSW 4.6 mph - N/A   Clear
9:35 PM 5.4 °F -9.6 °F -4.0 °F 65% 30.22 in 10.0 mi SW 10.4 mph - N/A   Clear
9:55 PM 5.2 °F -6.7 °F -3.8 °F 66% 30.22 in 10.0 mi SW 6.9 mph - N/A   Clear
10:15 PM 5.0 °F -9.1 °F -3.6 °F 68% 30.22 in 10.0 mi SW 9.2 mph - N/A   Clear
10:35 PM 4.6 °F -9.5 °F -3.5 °F 69% 30.23 in 10.0 mi SW 9.2 mph - N/A   Clear
10:55 PM 4.5 °F -8.7 °F -3.3 °F 70% 30.23 in 10.0 mi SW 8.1 mph - N/A   Clear
11:15 PM 4.3 °F -6.5 °F -3.3 °F 71% 30.23 in 10.0 mi WSW 5.8 mph - N/A   Clear
11:35 PM 4.1 °F -9.2 °F -3.3 °F 71% 30.23 in 10.0 mi WSW 8.1 mph - N/A   Clear
11:55 PM 4.1 °F -5.1 °F -3.3 °F 71% 30.22 in 10.0 mi WSW 4.6 mph - N/A   Clear